Stagione 2023 · Round 6

Monaco Grand Prix

2023-05-28 · Circuito de Monaco · Monaco · Monaco Grand Prix · 78Lap · 260.286km
Red Bull 1:48:51.980
Vittoria di squadra 25pt P1 · P16
Giro veloce
1:15.650 · L33
Ritiro
1
Lance Stroll L53
Meteo
25°/39°
media aria/pista · bagnato · umidità 46%
Safety car
0
Impieghi SC/VSC
Uso gomme Direzione gara
Storylines · This Grand Prix & circuit
Più vittorie in questo GP
Ayrton Senna 6 vittorie
Michael Schumacher 5 vittorie
Graham Hill 5 vittorie
Conversione pole-vittoria 34/72 47.2%
Most DNFs · all-time P11
Most SC/VSC · all-time P14
Arrivo più ravvicinato · all-time P13
Most lead changes · all-time P12
Circuito Info
Circuito de Monaco Monte Carlo, Monaco
78Lap 260.286km 72 gare held (1950–) Record del giro 1:12.909 · Lewis Hamilton (2021)
Record Watch · Active drivers ranked at this Grand Prix
P5 Lewis Hamilton 3 vittorie · → Alain Prost -1
P9 Fernando Alonso 2 vittorie · → Nico Rosberg -1
P9 Max Verstappen 2 vittorie · → Nico Rosberg -1
P1 Lewis Hamilton 8 · GP #1
P7 Fernando Alonso 5 · → Alain Prost -1
P1 Fernando Alonso 22 partenze · GP #1
P2 Lewis Hamilton 19 partenze · → Fernando Alonso -3
P11 Sergio Pérez 14 partenze · → Felipe Massa -1
Gara Trace · position by lap
partenza da fermo SG 1 7 13 19 25 31 37 43 49 55 61 67 73 FIN Verstappen · sosta ai box L55 Verstappen VER Verstappen VER Alonso · sosta ai box L54 Alonso ALO Alonso ALO Ocon · sosta ai box L32 Ocon · sosta ai box L54 Ocon OCO Ocon OCO Hamilton · sosta ai box L31 Hamilton · sosta ai box L54 Hamilton HAM Hamilton HAM Russell · sosta ai box L54 Russell · +5s aggiunto a fine gara Russell RUS Russell RUS Leclerc · sosta ai box L44 Leclerc · sosta ai box L55 Leclerc LEC Leclerc LEC Gasly · sosta ai box L47 Gasly · sosta ai box L54 Gasly GAS Gasly GAS Sainz · sosta ai box L33 Sainz · sosta ai box L55 Sainz SAI Sainz SAI Norris · sosta ai box L50 Norris · sosta ai box L54 Norris NOR Norris NOR Piastri · sosta ai box L54 Piastri PIA Piastri PIA Bottas · sosta ai box L51 Bottas BOT Bottas BOT de Vries · sosta ai box L53 de Vries DEV de Vries DEV Zhou · sosta ai box L1 Zhou · sosta ai box L52 Zhou ZHO Zhou ZHO Albon · sosta ai box L18 Albon · sosta ai box L52 Albon ALB Albon ALB Tsunoda · sosta ai box L53 Tsunoda TSU Tsunoda TSU Pérez · sosta ai box L1 Pérez · sosta ai box L34 Pérez · sosta ai box L53 Pérez · sosta ai box L57 Pérez · sosta ai box L70 Pérez PER Pérez PER Hülkenberg · sosta ai box L1 Hülkenberg · sosta ai box L54 · penalità scontata Hülkenberg · sosta ai box L59 Hülkenberg · +10s aggiunto a fine gara Hülkenberg HUL Hülkenberg HUL Sargeant · sosta ai box L20 Sargeant · sosta ai box L23 Sargeant · sosta ai box L52 Sargeant · +5s aggiunto a fine gara Sargeant SAR Sargeant SAR Magnussen · sosta ai box L56 Magnussen · fermo L70 · classificato P19 Magnussen MAG Magnussen MAG Stroll · sosta ai box L51 Stroll · ritiro L53 Stroll STR Stroll STR
sosta ai box penalità scontata ai box SG Griglia di partenza FIN classifica ufficiale penalità aggiunta a fine gara vettura ferma posizione a ogni giro (dal 1996)
PosPilotaTeamGrigliaGiroTempo / StatoPunti
1 1 Max Verstappen Red Bull 1 78 1:48:51.980 25
2 14 Fernando Alonso Aston Martin 2 78 +27.921 18
3 31 Esteban Ocon Alpine F1 Team 3 78 +36.990 15
4 44 Lewis Hamilton FL Mercedes 5 78 +39.062 13
5 63 George Russell Mercedes 8 78 +56.284 10
6 16 Charles Leclerc Ferrari 6 78 +1:01.890 8
7 10 Pierre Gasly Alpine F1 Team 7 78 +1:02.362 6
8 55 Carlos Sainz Ferrari 4 78 +1:03.391 4
9 4 Lando Norris McLaren 10 77 +4.061 2
10 81 Oscar Piastri McLaren 11 77 +13.959 1
11 77 Valtteri Bottas Alfa Romeo 15 77 +28.963
12 21 Nyck de Vries AlphaTauri 12 77 +57.317
13 24 Guanyu Zhou Alfa Romeo 19 77 +1:11.852
14 23 Alexander Albon Williams 13 77 +1:19.210
15 22 Yuki Tsunoda AlphaTauri 9 76 +7.545
16 11 Sergio Pérez Red Bull 20 76 +49.024
17 27 Nico Hülkenberg Haas F1 Team 18 76 +58.506
18 2 Logan Sargeant Williams 16 76 +1:17.983
19 20 Kevin Magnussen Haas F1 Team 17 70
R 18 Lance Stroll Aston Martin 14 53 Retired
PosPilotaTeamQ1Q2Q3Distacco dalla pole
1 1 Max Verstappen Red Bull 1:12.386 1:11.908 1:11.365 POLE Q3
2 14 Fernando Alonso Aston Martin 1:12.886 1:12.107 1:11.449 +0.084 Q3
3 16 Charles Leclerc Ferrari 1:12.912 1:12.103 1:11.471 +0.106 Q3
4 31 Esteban Ocon Alpine F1 Team 1:12.967 1:12.248 1:11.553 +0.188 Q3
5 55 Carlos Sainz Ferrari 1:12.717 1:12.210 1:11.630 +0.265 Q3
6 44 Lewis Hamilton Mercedes 1:12.872 1:12.156 1:11.725 +0.360 Q3
7 10 Pierre Gasly Alpine F1 Team 1:13.033 1:12.169 1:11.933 +0.568 Q3
8 63 George Russell Mercedes 1:12.769 1:12.151 1:11.964 +0.599 Q3
9 22 Yuki Tsunoda AlphaTauri 1:12.642 1:12.249 1:12.082 +0.717 Q3
10 4 Lando Norris McLaren 1:12.877 1:12.377 1:12.254 +0.889 Q3
11 81 Oscar Piastri McLaren 1:13.006 1:12.395 +1.030 Q2
12 21 Nyck de Vries AlphaTauri 1:13.054 1:12.428 +1.063 Q2
13 23 Alexander Albon Williams 1:12.706 1:12.527 +1.162 Q2
14 18 Lance Stroll Aston Martin 1:12.722 1:12.623 +1.258 Q2
15 77 Valtteri Bottas Alfa Romeo 1:13.038 1:12.625 +1.260 Q2
16 2 Logan Sargeant Williams 1:13.113 +1.748 Q1
17 20 Kevin Magnussen Haas F1 Team 1:13.270 +1.905 Q1
18 27 Nico Hülkenberg Haas F1 Team 1:13.279 +1.914 Q1
19 24 Guanyu Zhou Alfa Romeo 1:13.523 +2.158 Q1
20 11 Sergio Pérez Red Bull 1:13.850 +2.485 Q1
Griglia di partenza
Ufficiale
Final grid as classificato, including any dalla pit lane partenze. Source: Jolpica-F1. The arrow compares the grid slot with the le qualifiche classification; hover a drop to see the stewards document behind it.
Nessun dato per questa sessione.
PosPilotaGiro miglioreDistaccoGiri
1 55 Carlos Sainz 1:13.372 26
2 14 Fernando Alonso 1:13.710 +0.338 28
3 44 Lewis Hamilton 1:14.035 +0.663 27
4 11 Sergio Pérez 1:14.038 +0.666 27
5 16 Charles Leclerc 1:14.093 +0.721 24
6 1 Max Verstappen 1:14.244 +0.872 26
7 4 Lando Norris 1:14.467 +1.095 25
8 31 Esteban Ocon 1:14.585 +1.213 29
9 18 Lance Stroll 1:14.653 +1.281 28
10 23 Alexander Albon 1:14.666 +1.294 32
11 77 Valtteri Bottas 1:14.718 +1.346 29
12 20 Kevin Magnussen 1:14.725 +1.353 29
13 22 Yuki Tsunoda 1:14.820 +1.448 29
14 10 Pierre Gasly 1:14.866 +1.494 30
15 63 George Russell 1:15.066 +1.694 24
16 21 Nyck de Vries 1:15.083 +1.711 33
17 81 Oscar Piastri 1:15.192 +1.820 32
18 2 Logan Sargeant 1:15.557 +2.185 30
19 24 Guanyu Zhou 1:15.684 +2.312 25
20 27 Nico Hülkenberg 1:15.785 +2.413 17
Classified by best lap · source OpenF1 (2023+)
PosPilotaGiro miglioreDistaccoGiri
1 1 Max Verstappen 1:12.462 30
2 16 Charles Leclerc 1:12.527 +0.065 33
3 55 Carlos Sainz 1:12.569 +0.107 22
4 14 Fernando Alonso 1:12.682 +0.220 32
5 4 Lando Norris 1:12.906 +0.444 18
6 44 Lewis Hamilton 1:12.960 +0.498 29
7 11 Sergio Pérez 1:12.991 +0.529 30
8 77 Valtteri Bottas 1:13.050 +0.588 33
9 10 Pierre Gasly 1:13.089 +0.627 28
10 31 Esteban Ocon 1:13.162 +0.700 30
11 18 Lance Stroll 1:13.185 +0.723 31
12 63 George Russell 1:13.191 +0.729 32
13 24 Guanyu Zhou 1:13.354 +0.892 32
14 20 Kevin Magnussen 1:13.457 +0.995 28
15 27 Nico Hülkenberg 1:13.520 +1.058 33
16 22 Yuki Tsunoda 1:13.641 +1.179 22
17 21 Nyck de Vries 1:13.663 +1.201 34
18 81 Oscar Piastri 1:13.673 +1.211 30
19 23 Alexander Albon 1:14.217 +1.755 10
20 2 Logan Sargeant 1:14.238 +1.776 33
Classified by best lap · source OpenF1 (2023+)
PosPilotaGiro miglioreDistaccoGiri
1 1 Max Verstappen 1:12.776 19
2 11 Sergio Pérez 1:12.849 +0.073 24
3 18 Lance Stroll 1:12.942 +0.166 20
4 55 Carlos Sainz 1:13.261 +0.485 20
5 4 Lando Norris 1:13.396 +0.620 21
6 10 Pierre Gasly 1:13.453 +0.677 24
7 16 Charles Leclerc 1:13.475 +0.699 19
8 44 Lewis Hamilton 1:13.486 +0.710 17
9 31 Esteban Ocon 1:13.496 +0.720 18
10 77 Valtteri Bottas 1:13.521 +0.745 20
11 63 George Russell 1:13.590 +0.814 18
12 20 Kevin Magnussen 1:13.624 +0.848 13
13 27 Nico Hülkenberg 1:13.650 +0.874 16
14 14 Fernando Alonso 1:13.697 +0.921 18
15 22 Yuki Tsunoda 1:13.738 +0.962 21
16 24 Guanyu Zhou 1:13.772 +0.996 20
17 2 Logan Sargeant 1:13.851 +1.075 19
18 23 Alexander Albon 1:13.930 +1.154 23
19 81 Oscar Piastri 1:13.998 +1.222 18
20 21 Nyck de Vries 1:14.187 +1.411 24
Classified by best lap · source OpenF1 (2023+)
#PilotaTempo sul giroGiro
1 44 Lewis Hamilton 1:15.650 L33
2 16 Charles Leclerc 1:15.773 L46
3 10 Pierre Gasly 1:15.831 L49
4 10 Pierre Gasly 1:15.955 L50
5 16 Charles Leclerc 1:15.956 L50
6 44 Lewis Hamilton 1:16.257 L47
7 11 Sergio Pérez 1:16.269 L5
8 16 Charles Leclerc 1:16.283 L49
9 11 Sergio Pérez 1:16.353 L38
10 16 Charles Leclerc 1:16.358 L47
Top 10 più veloce race giri — #1 is the più veloce lap of la gara(FL).
Pit stop · a confronto
25s 30s 35s 40s 45s 50s mediana 25.8s Pierre Gasly · L47 · 23.902s Charles Leclerc · L44 · 24.192s Sergio Pérez · L53 · 24.217s Carlos Sainz · L33 · 24.252s Alexander Albon · L18 · 24.290s Logan Sargeant · L20 · 24.376s Fernando Alonso · L54 · 24.414s Nyck de Vries · L53 · 24.539s Lewis Hamilton · L31 · 24.594s Lance Stroll · L51 · 24.656s Lando Norris · L50 · 24.663s Esteban Ocon · L54 · 24.707s Max Verstappen · L55 · 24.798s Sergio Pérez · L1 · 24.887s Guanyu Zhou · L52 · 25.260s Sergio Pérez · L70 · 25.466s Nico Hülkenberg · L59 · 25.672s Charles Leclerc · L55 · 25.713s Esteban Ocon · L32 · 25.833s Oscar Piastri · L54 · 25.851s Logan Sargeant · L52 · 25.946s Guanyu Zhou · L1 · 26.141s Lewis Hamilton · L54 · 26.685s Alexander Albon · L52 · 26.990s Logan Sargeant · L23 · 27.774s Carlos Sainz · L55 · 29.300s Sergio Pérez · L57 · 29.337s Pierre Gasly · L54 · 29.949s Valtteri Bottas · L51 · 30.395s George Russell · L54 · 30.980s Nico Hülkenberg · L1 · 32.494s Sergio Pérez · L34 · 32.749s Lando Norris · L54 · 33.428s Yuki Tsunoda · L53 · 33.706s Nico Hülkenberg · L54 · 34.725s · penalità scontata Kevin Magnussen · L56 · 51.052s
più veloce 23.902s Pierre Gasly più lenta 51.052s Kevin Magnussen penalità scontata tempo di transito nella dalla pit lane — un punto per sosta
PilotaSostaGiroTempoTransito in dalla pit lane
11 Sergio Pérez 1 1 15:04:37 24.887s
27 Nico Hülkenberg 1 1 15:04:32 32.494s
24 Guanyu Zhou 1 1 15:04:37 26.141s
23 Alexander Albon 1 18 15:27:12 24.290s
2 Logan Sargeant 1 20 15:30:02 24.376s
2 Logan Sargeant 2 23 15:34:16 27.774s
44 Lewis Hamilton 1 31 15:43:34 24.594s
31 Esteban Ocon 1 32 15:44:45 25.833s
55 Carlos Sainz 1 33 15:46:05 24.252s
11 Sergio Pérez 2 34 15:48:26 32.749s
16 Charles Leclerc 1 44 16:00:25 24.192s
10 Pierre Gasly 1 47 16:04:16 23.902s
4 Lando Norris 1 50 16:08:48 24.663s
77 Valtteri Bottas 1 51 16:10:46 30.395s
18 Lance Stroll 1 51 16:10:52 24.656s
23 Alexander Albon 2 52 16:12:37 26.990s
24 Guanyu Zhou 2 52 16:12:35 25.260s
2 Logan Sargeant 3 52 16:13:19 25.946s
22 Yuki Tsunoda 1 53 16:13:18 33.706s
21 Nyck de Vries 1 53 16:13:47 24.539s
11 Sergio Pérez 3 53 16:14:19 24.217s
14 Fernando Alonso 1 54 16:13:32 24.414s
81 Oscar Piastri 1 54 16:15:18 25.851s
63 George Russell 1 54 16:13:57 30.980s
4 Lando Norris 2 54 16:15:20 33.428s
10 Pierre Gasly 2 54 16:14:18 29.949s
44 Lewis Hamilton 2 54 16:14:09 26.685s
27 Nico Hülkenberg 2 54 16:16:01 34.725s
31 Esteban Ocon 2 54 16:14:06 24.707s
1 Max Verstappen 1 55 16:15:17 24.798s
16 Charles Leclerc 2 55 16:16:03 25.713s
55 Carlos Sainz 2 55 16:16:04 29.300s
20 Kevin Magnussen 1 56 16:20:26 51.052s
11 Sergio Pérez 4 57 16:21:27 29.337s
27 Nico Hülkenberg 3 59 16:25:02 25.672s
11 Sergio Pérez 5 70 16:43:16 25.466s
soste
SG 10 20 30 40 50 60 70 L78
1
1
M54
I24
14
1
H53·+1
I25
31
2
M31
H22
I25
44
2
M30
H23
I25
63
1
H53
I25
16
2
H43
M11
I24
10
2
H46
M7
I25
55
2
H32
M22
I24
4
2
M49
H4
I24
81
1
H53
I24
77
1
H50
I27
21
1
M52
I25
24
2
H51
I26
23
2
M17
H34
I26
22
1
M52
I24
11
5
H33
M19·+1
I4
W13
I7
27
3
H53
I5
W18
2
3
M19
H3
S29
I25
20
1
H55
W15
18
1
H50·+1
I3
S Soft M Medium H Hard I Intermediate W Wet SC·VSC sosta ai box penalità scontata ai box
Gara · larghezza barra = giri su quel treno, ·+N = montato usato con N giri pregressi · fonte OpenF1 (2023+)
Mescole designate per questo Gran Premio
C3 Dura C4 Media C5 Morbida
Pirelli designa tre delle sue mescole slick per ogni evento; più alto è il numero C, più morbida è la gomma. Documento FIA ↗
Più posizioni guadagnate in pista
11
+11
P20→P16
24
+10
P19→P13
23
+9
P13→P14
27
+9
P18→P17
77
+8
P15→P11
16
+7
P6→P6
31
+6
P3→P3
18
+6
P14→P—
Più posizioni perse
Alexander Albon −10 Sergio Pérez −10 Carlos Sainz −9
Gara · Somma delle posizioni guadagnate in pista giro per giro — esclusi il giro di partenza e i propri giri ai box. Dati dei giri di gara dal 1996.
PilotaTipoGiroScontataAssegnataMotivo
27 Nico Hülkenberg Time penalty 5 54 +5s · 2pt Infringement - Car 27 - Causing a Collision (5 second time penalty. 2 penalty points (total of 2 for the 12 month period)) Documento FIA ↗
Giro 5 · Scontata 54 · +5s · 2pt Infringement - Car 27 - Causing a Collision (5 second time penalty. 2 penalty points (total of 2 for the 12 month period)) Documento FIA ↗
2 Logan Sargeant Time penalty 59 A fine gara +5s Infringement - Car 2 - Pit Lane Speeding (5 second time penalty.) Documento FIA ↗
Giro 59 · Scontata A fine gara · +5s Infringement - Car 2 - Pit Lane Speeding (5 second time penalty.) Documento FIA ↗
63 George Russell Time penalty 59 A fine gara +5s · 2pt Infringement - Car 63 - Unsafe Rejoin (5 second time penalty. 2 penalty points (total of 6 for the 12 month period)) Documento FIA ↗
Giro 59 · Scontata A fine gara · +5s · 2pt Infringement - Car 63 - Unsafe Rejoin (5 second time penalty. 2 penalty points (total of 6 for the 12 month period)) Documento FIA ↗
27 Nico Hülkenberg Time penalty 64 A fine gara +10s Infringement - Car 27 - Failure to Serve a Penalty (10 second time penalty) Documento FIA ↗
Giro 64 · Scontata A fine gara · +10s Infringement - Car 27 - Failure to Serve a Penalty (10 second time penalty) Documento FIA ↗
55 Carlos Sainz Black-and-white flag warning 17 CAUSING A COLLISION
Giro 17 CAUSING A COLLISION
18 Lance Stroll Black-and-white flag warning 41 CAUSING A COLLISION
Giro 41 CAUSING A COLLISION
23 Alexander Albon Black-and-white flag warning 55 TRACK LIMITS
Giro 55 TRACK LIMITS
20 Kevin Magnussen Black-and-white flag warning 58 TRACK LIMITS
Giro 58 TRACK LIMITS
14 Fernando Alonso Black-and-white flag warning 59 TRACK LIMITS
Giro 59 TRACK LIMITS
11 Sergio Pérez Black-and-white flag warning 66 TRACK LIMITS
Giro 66 TRACK LIMITS
10 Pierre Gasly Black-and-white flag warning 68 TRACK LIMITS
Giro 68 TRACK LIMITS
23 Alexander Albon Giri cancellati 54 TRACK LIMITS (PIT)
Giro 54 TRACK LIMITS (PIT)
63 George Russell Giri cancellati 55 TRACK LIMITS (PIT)
Giro 55 TRACK LIMITS (PIT)
44 Lewis Hamilton Giri cancellati 55 TRACK LIMITS (PIT)
Giro 55 TRACK LIMITS (PIT)
10 Pierre Gasly Giri cancellati 56 TRACK LIMITS (PIT)
Giro 56 TRACK LIMITS (PIT)
Giro = giro in cui è stata inflitta la penalità · Scontata = giro in cui è stata scontata ai box (vuoto: sommata al tempo di gara)
Time, drive-through and stop-go penalties come from race control messages (OpenF1, 2023+). Griglia penalties never appear there — the stewards publish them as documents after the session — so they are worked back from the starting grid against the le qualifiche classification, which gives places actually lost rather than the figure written in the decision.
PilotaTipoGiroScontataAssegnataMotivo
18 Lance Stroll No further action Decision - Car 18 - Alleged Weighbridge Procedure Infringement (No further action.) Documento FIA ↗
Decision - Car 18 - Alleged Weighbridge Procedure Infringement (No further action.) Documento FIA ↗
16 Charles Leclerc Penalità in griglia ▼3 Infringement - Car 16 - Alleged Impeding of Car 4 (Drop of 3 grid positions.) Documento FIA ↗
▼3 Infringement - Car 16 - Alleged Impeding of Car 4 (Drop of 3 grid positions.) Documento FIA ↗
Giro = giro in cui è stata inflitta la penalità · Scontata = giro in cui è stata scontata ai box (vuoto: sommata al tempo di gara)
Time, drive-through and stop-go penalties come from race control messages (OpenF1, 2023+). Griglia penalties never appear there — the stewards publish them as documents after the session — so they are worked back from the starting grid against the le qualifiche classification, which gives places actually lost rather than the figure written in the decision.
PilotaTipoGiroScontataAssegnataMotivo
24 Guanyu Zhou Fine €100 Infringement - Car 24 - Pit Lane Speeding (Fourth) (The competitor (Alfa Romeo F1 Team Stake) is fined €100.) Documento FIA ↗
€100 Infringement - Car 24 - Pit Lane Speeding (Fourth) (The competitor (Alfa Romeo F1 Team Stake) is fined €100.) Documento FIA ↗
44 Lewis Hamilton Fine €600 Infringement - Car 44 - Pit Lane Speeding (The competitor (Mercedes-AMG PETRONAS F1 Team) is fined €600.) Documento FIA ↗
€600 Infringement - Car 44 - Pit Lane Speeding (The competitor (Mercedes-AMG PETRONAS F1 Team) is fined €600.) Documento FIA ↗
24 Guanyu Zhou Fine €100 Infringement - Car 24 - Pit Lane Speeding (Third) (The competitor (Alfa Romeo F1 Team Stake) is fined €100.) Documento FIA ↗
€100 Infringement - Car 24 - Pit Lane Speeding (Third) (The competitor (Alfa Romeo F1 Team Stake) is fined €100.) Documento FIA ↗
2 Logan Sargeant Fine €100 Infringement - Car 2 - Pit Lane Speeding (Second) (The competitor (Williams Racing) is fined €100.) Documento FIA ↗
€100 Infringement - Car 2 - Pit Lane Speeding (Second) (The competitor (Williams Racing) is fined €100.) Documento FIA ↗
2 Logan Sargeant Fine €200 Infringement - Car 2 - Pit Lane Speeding (The competitor (Williams Racing) is fined €200.) Documento FIA ↗
€200 Infringement - Car 2 - Pit Lane Speeding (The competitor (Williams Racing) is fined €200.) Documento FIA ↗
24 Guanyu Zhou Fine €300 Infringement - Car 24 - Pit Lane Speeding (Second) (The competitor (Alfa Romeo F1 Team Stake) is fined €300.) Documento FIA ↗
€300 Infringement - Car 24 - Pit Lane Speeding (Second) (The competitor (Alfa Romeo F1 Team Stake) is fined €300.) Documento FIA ↗
24 Guanyu Zhou Fine €300 Infringement - Car 24 - Pit Lane Speeding (The competitor (Alfa Romeo F1 Team Stake) is fined €300.) Documento FIA ↗
€300 Infringement - Car 24 - Pit Lane Speeding (The competitor (Alfa Romeo F1 Team Stake) is fined €300.) Documento FIA ↗
Giro = giro in cui è stata inflitta la penalità · Scontata = giro in cui è stata scontata ai box (vuoto: sommata al tempo di gara)
Time, drive-through and stop-go penalties come from race control messages (OpenF1, 2023+). Griglia penalties never appear there — the stewards publish them as documents after the session — so they are worked back from the starting grid against the le qualifiche classification, which gives places actually lost rather than the figure written in the decision.
PilotaTipoGiroScontataAssegnataMotivo
63 George Russell Fine €100 Infringement - Car 63 - Pit Lane Speeding (The competitor (Mercedes-AMG PETRONAS F1 Team) is fined €100.) Documento FIA ↗
€100 Infringement - Car 63 - Pit Lane Speeding (The competitor (Mercedes-AMG PETRONAS F1 Team) is fined €100.) Documento FIA ↗
22 Yuki Tsunoda Black-and-white flag warning €1,000 Infringement - Car 22 - Pit Lane Speeding (The competitor (Scuderia AlphaTauri) is fined €1,000 and the driver is given a warning.) Documento FIA ↗
€1,000 Infringement - Car 22 - Pit Lane Speeding (The competitor (Scuderia AlphaTauri) is fined €1,000 and the driver is given a warning.) Documento FIA ↗
Giro = giro in cui è stata inflitta la penalità · Scontata = giro in cui è stata scontata ai box (vuoto: sommata al tempo di gara)
Time, drive-through and stop-go penalties come from race control messages (OpenF1, 2023+). Griglia penalties never appear there — the stewards publish them as documents after the session — so they are worked back from the starting grid against the le qualifiche classification, which gives places actually lost rather than the figure written in the decision.
PilotaTipoGiroScontataAssegnataMotivo
23 Alexander Albon Fine €100 Infringement - Car 23 - Pit Lane Speeding (The competitor (Williams Racing) is fined €100.) Documento FIA ↗
€100 Infringement - Car 23 - Pit Lane Speeding (The competitor (Williams Racing) is fined €100.) Documento FIA ↗
Giro = giro in cui è stata inflitta la penalità · Scontata = giro in cui è stata scontata ai box (vuoto: sommata al tempo di gara)
Time, drive-through and stop-go penalties come from race control messages (OpenF1, 2023+). Griglia penalties never appear there — the stewards publish them as documents after the session — so they are worked back from the starting grid against the le qualifiche classification, which gives places actually lost rather than the figure written in the decision.
DocTitoloOggettoPublished(CET)
Gara Director's Event Notes ↗ 2023-05-24 15:01
2023-05-24 15:01 CET
Post-Gara Checks Miami GP on Car 10 ↗ 10 Pierre Gasly 2023-05-24 15:42
10 Pierre Gasly 2023-05-24 15:42 CET
Event Notes - Circuito Map, Pit Lane, Red Zone and Pirelli Preview ↗ 2023-05-24 16:17
2023-05-24 16:17 CET
Event Notes - Pirelli Preview V2 ↗ 2023-05-25 10:50
2023-05-25 10:50 CET
Car Display Procedure ↗ 2023-05-26 09:16
2023-05-26 09:16 CET
RNCs usati per driver up to now ↗ 2023-05-26 11:39
2023-05-26 11:39 CET
PU elements usati per driver up to now ↗ 2023-05-26 11:39
2023-05-26 11:39 CET
Self scrutineering ↗ 2023-05-26 11:42
2023-05-26 11:42 CET
Entry List ↗ 2023-05-26 11:46
2023-05-26 11:46 CET
Gara Director's Event Notes V2 ↗ 2023-05-26 12:15
2023-05-26 12:15 CET
New PU elements for this Competition ↗ 2023-05-26 14:19
2023-05-26 14:19 CET
P1 Classification ↗ 2023-05-26 14:41
2023-05-26 14:41 CET
Gara Director's Event Notes V3 ↗ 2023-05-26 14:55
2023-05-26 14:55 CET
Summons - Car 22 - Pit Lane Speeding ↗ 22 Yuki Tsunoda 2023-05-26 18:26
22 Yuki Tsunoda 2023-05-26 18:26 CET
P2 Classification ↗ 2023-05-26 18:26
2023-05-26 18:26 CET
Infringement - Car 63 - Pit Lane Speeding ↗ 63 George Russell 2023-05-26 18:42
63 George Russell 2023-05-26 18:42 CET
Infringement - Car 22 - Pit Lane Speeding ↗ 22 Yuki Tsunoda 2023-05-26 19:06
22 Yuki Tsunoda 2023-05-26 19:06 CET
P1 and P2 scrutineering ↗ 2023-05-26 19:49
2023-05-26 19:49 CET
Use of a gearbox assembly outside the RNC allocation ↗ 2023-05-26 19:50
2023-05-26 19:50 CET
Gara Director's Note - SC2-SC1 Time ↗ 2023-05-26 21:26
2023-05-26 21:26 CET
Curfew ↗ 2023-05-27 09:36
2023-05-27 09:36 CET
Gara Director's Note - Additional Intermediate Gomme ↗ 2023-05-27 10:31
2023-05-27 10:31 CET
New PU elements for this Competition ↗ 2023-05-27 13:22
2023-05-27 13:22 CET
Infringement - Car 24 - Pit Lane Speeding (Third) ↗ 24 Guanyu Zhou 2023-05-27 13:23
24 Guanyu Zhou 2023-05-27 13:23 CET
Infringement - Car 2 - Pit Lane Speeding (Second) ↗ 2 Logan Sargeant 2023-05-27 13:23
2 Logan Sargeant 2023-05-27 13:23 CET
Infringement - Car 2 - Pit Lane Speeding ↗ 2 Logan Sargeant 2023-05-27 13:23
2 Logan Sargeant 2023-05-27 13:23 CET
Infringement - Car 24 - Pit Lane Speeding (Second) ↗ 24 Guanyu Zhou 2023-05-27 13:23
24 Guanyu Zhou 2023-05-27 13:23 CET
Infringement - Car 24 - Pit Lane Speeding ↗ 24 Guanyu Zhou 2023-05-27 13:23
24 Guanyu Zhou 2023-05-27 13:23 CET
Infringement - Car 24 - Pit Lane Speeding (Fourth) ↗ 24 Guanyu Zhou 2023-05-27 13:29
24 Guanyu Zhou 2023-05-27 13:29 CET
Infringement - Car 44 - Pit Lane Speeding ↗ 44 Lewis Hamilton 2023-05-27 13:29
44 Lewis Hamilton 2023-05-27 13:29 CET
P3 Classification ↗ 2023-05-27 13:40
2023-05-27 13:40 CET
Post-Qualifiche Procedure ↗ 2023-05-27 14:25
2023-05-27 14:25 CET
New RNCs for this Competition ↗ 2023-05-27 16:08
2023-05-27 16:08 CET
Summons - Car 4 - Alleged Impeding by Car 16 ↗ 4 Lando Norris 2023-05-27 17:31
4 Lando Norris 2023-05-27 17:31 CET
Summons - Car 16 - Alleged Impeding of Car 4 ↗ 16 Charles Leclerc 2023-05-27 17:31
16 Charles Leclerc 2023-05-27 17:31 CET
Provisional Qualifiche Classification ↗ 2023-05-27 17:46
2023-05-27 17:46 CET
Summons - Car 18 - Alleged Weighbridge Procedure Infringement ↗ 18 Lance Stroll 2023-05-27 17:46
18 Lance Stroll 2023-05-27 17:46 CET
Qualifiche Deleted Giro Times ↗ 2023-05-27 18:50
2023-05-27 18:50 CET
P3 and Qualifiche scrutineering ↗ 2023-05-27 19:50
2023-05-27 19:50 CET
Infringement - Car 16 - Alleged Impeding of Car 4 ↗ 16 Charles Leclerc 2023-05-27 19:50
16 Charles Leclerc 2023-05-27 19:50 CET
Final Qualifiche Classification ↗ 2023-05-27 20:02
2023-05-27 20:02 CET
Decision - Car 18 - Alleged Weighbridge Procedure Infringement ↗ 18 Lance Stroll 2023-05-27 20:02
18 Lance Stroll 2023-05-27 20:02 CET
Provisional Starting Griglia ↗ 2023-05-27 20:06
2023-05-27 20:06 CET
Pre-Gara Procedure ↗ 2023-05-28 11:00
2023-05-28 11:00 CET
Post-Gara Procedure ↗ 2023-05-28 11:01
2023-05-28 11:01 CET
Parts and parameters been replaced and or changed during Parc Fermé ↗ 2023-05-28 12:55
2023-05-28 12:55 CET
Final Starting Griglia ↗ 2023-05-28 13:01
2023-05-28 13:01 CET
Infringement - Car 23 - Pit Lane Speeding ↗ 23 Alexander Albon 2023-05-28 14:54
23 Alexander Albon 2023-05-28 14:54 CET
Infringement - Car 27 - Causing a Collision ↗ 27 Nico Hülkenberg 2023-05-28 15:42
27 Nico Hülkenberg 2023-05-28 15:42 CET
Infringement - Car 27 - Failure to Serve a Penalty ↗ 27 Nico Hülkenberg 2023-05-28 16:52
27 Nico Hülkenberg 2023-05-28 16:52 CET
Infringement - Car 2 - Pit Lane Speeding ↗ 2 Logan Sargeant 2023-05-28 16:57
2 Logan Sargeant 2023-05-28 16:57 CET
Infringement - Car 63 - Unsafe Rejoin ↗ 63 George Russell 2023-05-28 17:03
63 George Russell 2023-05-28 17:03 CET
Provisional Gara Classification ↗ 2023-05-28 17:16
2023-05-28 17:16 CET
Gara Deleted Giro Times ↗ 2023-05-28 17:33
2023-05-28 17:33 CET
Gara scrutineering ↗ 2023-05-28 18:53
2023-05-28 18:53 CET
Final Gara Classification ↗ 2023-05-28 18:56
2023-05-28 18:56 CET
Campionato Punti ↗ 2023-05-28 19:00
2023-05-28 19:00 CET
FIA official decisions and documents (fia.com) · PDF original PDF links
Record Basis · Calculation basis
Gara order is the final classification(post-race penalties applied) · le qualifiche session data 2003+ · lap times 1996+ · pit stops 2012+ (pit-lane transit, not stationary time) · Ritiro = Finished(Finished·+N Giri) non-Finished statuses
Fonti dei dati: Jolpica-F1 (Ergast compatible API) · weather·Direzione gara OpenF1 (2023+) · Last fetched: 2026-09-05 14:15